Location: Rounton
(54.4000°N, 1.3500°W)
Time: 11:56:31
(UTC+01:00)

Vanguard 1 - Pass Details

Date: 28 February 2024
Orbit: 653 x 3825 km, 34.2° (Epoch: 22 April)

Event Time Altitude Azimuth Distance (km) Brightness Sun altitude
Rises 20:21:40 0° 237° (WSW) 5,423 14.3 -24.1°
Reaches altitude 10° 20:25:03 10° 229° (SW) 4,805 13.9 -24.6°
Maximum altitude 20:38:02 37° 169° (SSE) 4,162 12.9 -26.3°
Enters shadow 20:44:20 32° 139° (SE) 4,834 13.0 -27.1°
